Location: Los Ranchitos
(37.9930°N, 122.5425°W)
Time: 08:35:34
(UTC+00:00)

Cosmos 1812 - Pass Details

Date: 21 September 2020
Orbit: 516 x 521 km, 82.5° (Epoch: 29 October)

Event Time Altitude Azimuth Distance (km) Brightness Sun altitude
Exits shadow 11:57:07 43° 2° (N) 737 3.5 -24.0°
Drops below altitude 10° 11:59:49 10° 6° (N) 1,761 5.7 -23.5°
Sets 12:01:57 0° 7° (N) 2,654 6.7 -23.1°
